Hourly Data Report for August 07, 2018

TORONTO CITY
ONTARIO
Current Station Operator: ECCC - MSC

43°40'00.000" N
79°24'00.000" W
112.50 m
6158355
71508
XTO

Download Data

Hourly Data (August 2018)
Hourly Data Report for August 7, 2018
TIME
LST
Temp Definition
°C
Dew Point Definition
°C
Rel Hum Definition
%
Precip. Amount Definition
mm

Wind Dir Definition
10's deg

Wind Spd Definition
km/h
Visibility Definition
km
Stn Press Definition
kPa
Hmdx Definition


Wind Chill Definition


Weather Definition


00:00 22.3 19.6 85 2.6 LegendMM LegendMM   100.06 30   LegendNANA
01:00 21.9 19.7 87 0.5 LegendMM LegendMM   100.02 29   LegendNANA
02:00 22.0 19.9 88 0.0 LegendMM LegendMM   99.95 29   LegendNANA
03:00 22.1 20.1 88 0.0 LegendMM LegendMM   99.97 30   LegendNANA
04:00 21.9 19.8 88 0.0 LegendMM LegendMM   100.02 29   LegendNANA
05:00 21.7 19.8 89 0.3 LegendMM LegendMM   100.02 29   LegendNANA
06:00 21.7 19.4 87 0.0 LegendMM LegendMM   100.04 29   LegendNANA
07:00 22.3 19.4 84 0.0 LegendMM LegendMM   100.06 29   LegendNANA
08:00 23.2 19.1 78 0.0 LegendMM LegendMM   100.05 30   LegendNANA
09:00 23.7 17.8 70 0.0 LegendMM LegendMM   100.08 30   LegendNANA
10:00 25.2 19.0 68 0.0 LegendMM LegendMM   100.10 32   LegendNANA
11:00 25.9 18.2 63 0.0 LegendMM LegendMM   100.11 32   LegendNANA
12:00 26.5 17.4 57 0.0 LegendMM LegendMM   100.12 32   LegendNANA
13:00 26.7 16.8 55 0.0 LegendMM LegendMM   100.07 32   LegendNANA
14:00 27.0 17.6 56 0.0 LegendMM LegendMM   100.02 33   LegendNANA
15:00 27.8 17.9 55 0.0 LegendMM LegendMM   99.96 34   LegendNANA
16:00 27.0 17.4 56 0.0 LegendMM LegendMM   99.91 33   LegendNANA
17:00 27.1 17.5 56 0.0 LegendMM LegendMM   99.89 33   LegendNANA
18:00 26.0 18.8 65 0.0 LegendMM LegendMM   99.88 33   LegendNANA
19:00 25.7 19.0 67 0.0 LegendMM LegendMM   99.92 32   LegendNANA
20:00 25.5 19.1 68 0.0 LegendMM LegendMM   99.97 32   LegendNANA
21:00 22.0 19.8 88 29.5 LegendMM LegendMM   100.07 29   LegendNANA
22:00 20.2 18.3 89 24.7 LegendMM LegendMM   100.01 26   LegendNANA
23:00 21.3 19.2 88 3.7 LegendMM LegendMM   99.89 28   LegendNANA

Notes on Data Quality.

Legend

  • E = Estimated
  • M = Missing
  • NA = Not Available*
  • [empty] = Indicates an unobserved value
Date modified: